Location: Eferding
(48.3167°N, 14.0167°E)
Time: 20:19:34
(UTC+00:00)

CENTAUR R/B - Pass Details

Date: 12 November 2019
Orbit: 779 x 1409 km, 63.4° (Epoch: 01 December)

Event Time Altitude Azimuth Distance (km) Brightness Sun altitude
Rises 17:30:20 0° 296° (WNW) 3,804 6.6 -20.1°
Reaches altitude 10° 17:33:24 10° 310° (NW) 2,957 5.6 -20.6°
Maximum altitude 17:39:10 25° 4° (N) 2,209 4.3 -21.6°
Enters shadow 17:42:29 19° 38° (NE) 2,595 4.3 -22.1°
